Location: Fouquenies
(49.4624°N, 2.0492°E)
Time: 19:05:32
(UTC+00:00)

USA 215 - Pass Details

Date: 03 February 2023
Orbit: 1097 x 1110 km, 123.0° (Epoch: 24 March)

Event Time Altitude Azimuth Distance (km) Brightness Sun altitude
Rises 18:15:26 0° 149° (SSE) 3,909 5.9 -14.0°
Reaches altitude 10° 18:18:04 10° 155° (SSE) 2,952 5.4 -14.4°
Maximum altitude 18:24:12 43° 226° (SW) 1,503 4.4 -15.4°
Drops below altitude 10° 18:30:22 10° 296° (WNW) 2,959 6.4 -16.4°
Sets 18:33:01 0° 304° (WNW) 3,918 7.0 -16.8°
